Date String (YYYY-MM-DD hh:mm:ss) UTC,Instrument flags,absolute air pressure of the measurement (hPa),sample flow rate (lpm),inlet stack bypass flow (lpm),air temperature of the measurement (°C),ambient temperature measured by the external sensor (°C),aerosol sample conditioner tube jacket temperature (°C),OPC LED temperature (°C),internal box temperature (°C),relative humidity of the measurement (%),span deviation,mass concentration of particles derived from Lorenz-Mie calculation of OPC scattering (μg/m³),mass concentration of particles derived from Lorenz-Mie calculation of OPC scattering (μg/m³),mass concentration of particles derived from Lorenz-Mie calculation of OPC scattering (μg/m³)
DateTimeUTC,F1_M11,P_M11,Q1_M11,Q2_M11,T1_M11,T2_M11,T3_M11,T4_M11,T5_M11,U1_M11,ZSPAN_M11,X0_M11,X2_M11,X1_M11
2024-01-03 21:00:00,SystemResetWarning,0826.9,5.01,000.00,023.8,023.2,000.0,031.9,025.1,11.0,0004.5,0017.21,0010.48,0009.67
2024-01-03 21:01:00,SystemResetWarning,0826.9,5.00,000.00,023.8,023.2,000.0,032.0,025.1,10.9,0004.2,0017.02,0010.56,0009.71
2024-01-03 21:02:00,SystemResetWarning,0826.9,5.00,000.00,023.8,023.2,000.0,032.0,025.1,10.9,0004.0,0016.77,0010.64,0009.74
2024-01-03 21:03:00,SystemResetWarning,0826.9,5.00,000.00,023.8,023.2,000.0,032.0,025.2,10.9,0003.9,0016.76,0010.71,0009.76
2024-01-03 21:04:00,SystemResetWarning,0826.9,5.00,000.00,023.8,023.2,000.0,032.0,025.2,10.9,0003.4,0016.67,0010.80,0009.82
2024-01-03 21:05:00,SystemResetWarning,0826.9,5.00,000.00,023.8,023.2,000.0,032.0,025.2,10.9,0002.5,0017.30,0010.89,0009.90
2024-01-03 21:06:00,SystemResetWarning,0826.9,5.00,000.00,023.8,023.2,000.0,032.0,025.2,10.9,0002.7,0017.59,0011.03,0009.98
2024-01-03 21:07:00,SystemResetWarning,0826.9,5.00,000.00,023.9,023.2,000.0,032.0,025.2,10.9,0002.3,0017.52,0011.09,0010.04
2024-01-03 21:08:00,SystemResetWarning,0826.9,4.99,000.00,023.9,023.2,000.0,032.0,025.2,10.9,0002.6,0018.08,0011.17,0010.13
2024-01-03 21:09:00,SystemResetWarning,0826.9,4.99,000.00,023.9,023.2,000.0,032.0,025.2,10.9,0002.7,0018.43,0011.26,0010.20
2024-01-03 21:10:00,SystemResetWarning,0826.9,5.00,000.00,023.9,023.3,000.0,032.1,025.2,10.9,0002.7,0018.83,0011.36,0010.30
2024-01-03 21:11:00,SystemResetWarning,0826.9,5.01,000.00,023.9,023.3,000.0,032.1,025.2,10.9,0003.3,0019.11,0011.53,0010.42
2024-01-03 21:12:00,SystemResetWarning,0826.9,5.01,000.00,023.9,023.2,000.0,032.1,025.2,10.9,0003.6,0019.54,0011.61,0010.50
2024-01-03 21:13:00,SystemResetWarning,0826.8,4.99,000.00,023.9,023.3,000.0,032.1,025.2,10.9,0003.5,0020.22,0011.64,0010.57
2024-01-03 21:14:00,SystemResetWarning,0826.8,4.99,000.00,023.9,023.3,000.0,032.1,025.2,11.0,0003.5,0020.52,0011.66,0010.65
2024-01-03 21:15:00,SystemResetWarning,0826.8,5.02,000.00,023.9,023.3,000.0,032.1,025.3,10.9,0003.7,0020.59,0011.69,0010.70
2024-01-03 21:16:00,SystemResetWarning,0826.8,5.00,000.00,023.9,023.3,000.0,032.1,025.3,10.9,0004.1,0020.51,0011.75,0010.75
2024-01-03 21:17:00,SystemResetWarning,0826.8,4.98,000.00,024.0,023.3,000.0,032.1,025.4,10.9,0004.1,0019.94,0011.75,0010.79
2024-01-03 21:18:00,SystemResetWarning,0826.8,4.99,000.00,024.0,023.4,000.0,032.1,025.4,10.9,0004.2,0020.32,0011.81,0010.84
2024-01-03 21:19:00,SystemResetWarning,0826.8,5.01,000.00,024.0,023.4,000.0,032.1,025.4,10.9,0004.3,0020.27,0011.86,0010.87
2024-01-03 21:20:00,SystemResetWarning,0826.8,5.01,000.00,024.0,023.4,000.0,032.2,025.4,10.8,0004.2,0020.38,0011.89,0010.90
2024-01-03 21:21:00,SystemResetWarning,0826.8,5.00,000.00,024.0,023.4,000.0,032.2,025.4,10.8,0004.3,0020.73,0011.95,0010.92
2024-01-03 21:22:00,SystemResetWarning,0826.8,4.99,000.00,024.0,023.5,000.0,032.2,025.5,10.8,0004.0,0020.94,0011.95,0010.95
2024-01-03 21:23:00,SystemResetWarning,0826.8,5.00,000.00,024.1,023.5,000.0,032.2,025.5,10.8,0003.6,0020.45,0012.00,0011.00
2024-01-03 21:24:00,SystemResetWarning,0826.8,5.01,000.00,024.1,023.5,000.0,032.2,025.5,10.8,0003.5,0020.21,0012.09,0011.06
2024-01-03 21:25:00,SystemResetWarning,0826.9,5.01,000.00,024.1,023.5,000.0,032.2,025.5,10.8,0003.9,0020.27,0012.19,0011.14
2024-01-03 21:26:00,SystemResetWarning,0826.9,5.00,000.00,024.1,023.5,000.0,032.2,025.5,10.8,0003.8,0020.58,0012.28,0011.17
2024-01-03 21:27:00,SystemResetWarning,0826.9,5.00,000.00,024.1,023.5,000.0,032.3,025.5,10.8,0003.6,0020.78,0012.32,0011.20
2024-01-03 21:28:00,SystemResetWarning,0826.9,5.00,000.00,024.1,023.5,000.0,032.3,025.5,10.8,0003.2,0020.69,0012.32,0011.23
2024-01-03 21:29:00,SystemResetWarning,0826.9,5.00,000.00,024.1,023.6,000.0,032.3,025.5,10.8,0003.3,0020.24,0012.32,0011.25
2024-01-03 21:30:00,SystemResetWarning,0826.9,4.99,000.00,024.1,023.6,000.0,032.3,025.5,10.6,0003.4,0020.69,0012.33,0011.26
2024-01-03 21:31:00,SystemResetWarning,0826.9,5.01,000.00,024.2,023.6,000.0,032.3,025.5,10.5,0003.6,0021.33,0012.34,0011.28
2024-01-03 21:32:00,SystemResetWarning,0826.9,5.01,000.00,024.2,023.6,000.0,032.3,025.5,10.5,0003.5,0020.99,0012.29,0011.28
2024-01-03 21:33:00,SystemResetWarning,0826.9,5.00,000.00,024.2,023.6,000.0,032.3,025.5,10.3,0003.3,0020.65,0012.28,0011.28
2024-01-03 21:34:00,SystemResetWarning,0826.9,4.98,000.00,024.2,023.6,000.0,032.3,025.5,10.0,0003.1,0020.34,0012.26,0011.24
2024-01-03 21:35:00,SystemResetWarning,0826.9,5.01,000.00,024.2,023.6,000.0,032.4,025.5,10.1,0003.7,0020.16,0012.20,0011.20
2024-01-03 21:36:00,SystemResetWarning,0826.9,5.01,000.00,024.2,023.6,000.0,032.4,025.5,10.2,0004.0,0019.81,0012.13,0011.15
2024-01-03 21:37:00,SystemResetWarning,0826.9,5.00,000.00,024.2,023.5,000.0,032.4,025.5,10.2,0004.1,0019.64,0012.10,0011.15
2024-01-03 21:38:00,SystemResetWarning,0826.9,5.00,000.00,024.2,023.6,000.0,032.4,025.5,10.2,0004.4,0018.54,0012.01,0011.12
2024-01-03 21:39:00,SystemResetWarning,0826.9,4.98,000.00,024.2,023.6,000.0,032.4,025.5,10.1,0004.4,0018.95,0012.07,0011.11
2024-01-03 21:40:00,SystemResetWarning,0826.9,5.01,000.00,024.2,023.6,000.0,032.4,025.5,10.0,0004.8,0019.69,0012.10,0011.10
2024-01-03 21:41:00,SystemResetWarning,0826.9,5.01,000.00,024.2,023.6,000.0,032.4,025.5,10.1,0005.0,0019.35,0012.11,0011.11
2024-01-03 21:42:00,SystemResetWarning,0826.9,4.99,000.00,024.2,023.6,000.0,032.4,025.6,10.1,0004.8,0018.76,0012.10,0011.10
2024-01-03 21:43:00,SystemResetWarning,0827.0,5.00,000.00,024.3,023.7,000.0,032.4,025.6,10.1,0004.8,0018.35,0012.05,0011.05
2024-01-03 21:44:00,SystemResetWarning,0826.9,5.01,000.00,024.3,023.6,000.0,032.4,025.5,9.8,0005.0,0018.47,0011.99,0010.99
2024-01-03 21:45:00,SystemResetWarning,0826.9,5.00,000.00,024.3,023.6,000.0,032.5,025.6,9.6,0005.2,0019.23,0011.92,0010.95
2024-01-03 21:46:00,SystemResetWarning,0826.9,5.00,000.00,024.3,023.7,000.0,032.5,025.6,9.6,0005.3,0019.11,0011.87,0010.89
2024-01-03 21:47:00,SystemResetWarning,0826.9,4.99,000.00,024.3,023.7,000.0,032.5,025.6,9.5,0005.2,0018.99,0011.78,0010.83
2024-01-03 21:48:00,SystemResetWarning,0826.9,4.99,000.00,024.3,023.7,000.0,032.5,025.6,9.6,0005.1,0019.04,0011.69,0010.72
2024-01-03 21:49:00,SystemResetWarning,0826.9,5.02,000.00,024.3,023.7,000.0,032.5,025.7,9.6,0005.0,0019.11,0011.54,0010.62
2024-01-03 21:50:00,SystemResetWarning,0826.9,5.01,000.00,024.3,023.7,000.0,032.5,025.7,9.6,0005.0,0019.11,0011.46,0010.54
2024-01-03 21:51:00,SystemResetWarning,0826.9,4.99,000.00,024.4,023.8,000.0,032.5,025.7,9.5,0005.1,0019.62,0011.34,0010.46
2024-01-03 21:52:00,SystemResetWarning,0826.9,4.99,000.00,024.4,023.8,000.0,032.5,025.7,9.5,0004.8,0019.90,0011.21,0010.36
2024-01-03 21:53:00,SystemResetWarning,0827.0,5.00,000.00,024.4,023.8,000.0,032.5,025.8,9.5,0004.5,0020.48,0011.05,0010.24
2024-01-03 21:54:00,SystemResetWarning,0827.0,5.01,000.00,024.4,023.8,000.0,032.6,025.9,9.6,0004.6,0021.17,0010.99,0010.16
2024-01-03 21:55:00,SystemResetWarning,0826.9,5.01,000.00,024.4,023.8,000.0,032.6,025.8,9.5,0004.8,0021.59,0010.95,0010.12
2024-01-03 21:56:00,SystemResetWarning,0826.9,4.99,000.00,024.4,023.8,000.0,032.6,025.9,9.5,0004.6,0021.53,0010.87,0010.08
2024-01-03 21:57:00,SystemResetWarning,0826.9,4.98,000.00,024.4,023.9,000.0,032.6,025.9,9.5,0004.2,0021.66,0010.82,0010.01
2024-01-03 21:58:00,SystemResetWarning,0827.0,5.02,000.00,024.5,023.9,000.0,032.6,025.9,9.1,0004.1,0022.15,0010.79,0009.96
2024-01-03 21:59:00,SystemResetWarning,0827.0,4.99,000.00,024.5,023.8,000.0,032.6,025.7,9.0,0004.0,0022.54,0010.77,0009.91
